STARLINK-4748 (53823 NORAD) Tracking and Keplerian Element Data

This shows tracking and keplerian element data for the satellite.

Feedback or suggestion? Click here.




ElementValue
Catalog53823
NameSTARLINK-4748
Epoch Orbit1055
Epoch Day325.33334491
Epoch Year2022
RAAN304.0477
Inclination53.2141
Eccentricity0.0004231
Argument of Perigee3.2556
Mean Anonmoly79.5896
Mean Motion15.73198738
Decay Rate0.00021657
L11 53823U 22114F 22325.33334491 .00021657 00000+0 15829-3 0 9993
L22 53823 53.2141 304.0477 0004231 3.2556 79.5896 15.73198738 10552



Live tracking and technical data element details for STARLINK-4748 (NORAD 53823). STARLINK-4748 can be tracked NOW for your location showing map with azimuth and elevation plus other details from your city location.







IsCatalogInMostPopularTable: catalog: 53823, numindb: -1

Insert: records affected: 1


GetName: 53823 STARLINK-4748

Hit Count: inserted at: Thu, 08 Dec 2022 09:57:47 GMT